KOREASAT 116

Last updated on Sun Jun 21 2026 00:03:08 GMT+0000 (Coordinated Universal Time)

1 45920U 20048A 26171.47730346 -.00000366 00000+0 00000+0 0 9999 2 45920 0.0123 314.2898 0000856 137.2809 105.1307 1.00274655 21675
UTC large
Height (km)
Speed (km/s)
/
Latitude / Longitude
Inclination (degrees)
Orbital Period (minutes)
Azimuth
Elevation
Range (km)
Doppler Factor

Next 0 passes for location: London (51.5072 / 0.1276)

No passes found over London.
KOREASAT 116